CW7779 Weather Reports


Display with metric or nautical units.
time (UTC)temp
F
wind
direction
speed
MPH
gust
MPH
rain 1hr
in
rain 24hr
in
rain mn
in
humidity
%
barometer
mb
20260906123021 76 18 1.0 5.0 0.00 1.94 0.00 86 1012.0
20260906121520 75 28 0.0 3.0 0.00 1.94 0.00 88 1011.8
20260906120018 74 341 2.0 5.0 0.00 1.94 0.00 90 1011.8
20260906114531 74 353 1.0 4.0 0.00 1.94 0.00 90 1011.6
20260906113018 74 16 1.0 3.0 0.00 1.94 0.00 90 1011.5
20260906111517 74 17 0.0 2.0 0.00 1.94 0.00 90 1011.4
20260906110016 73 16 1.0 3.0 0.00 1.94 0.00 89 1011.4
20260906104519 74 17 0.0 4.0 0.00 1.94 0.00 90 1011.1
20260906103015 74 24 0.0 3.0 0.00 1.94 0.00 90 1010.8
20260906101514 74 24 1.0 2.0 0.00 1.94 0.00 89 1010.6
20260906100013 75 24 1.0 3.0 0.00 1.94 0.00 90 1010.5
20260906094533 75 26 0.0 3.0 0.00 1.94 0.00 90 1010.4
20260906093018 74 21 0.0 2.0 0.00 1.94 0.00 90 1010.3
20260906091512 74 26 1.0 3.0 0.00 1.94 0.00 90 1010.4
20260906090018 75 22 0.0 3.0 0.00 1.94 0.00 90 1010.2
20260906084510 75 22 0.0 3.0 0.00 1.94 0.00 90 1010.1
20260906083010 75 13 0.0 2.0 0.00 1.94 0.00 90 1010.2
20260906081513 75 12 0.0 2.0 0.00 1.94 0.00 90 1010.3
20260906080010 75 13 0.0 1.0 0.00 1.94 0.00 90 1010.0
20260906074508 74 353 0.0 2.0 0.00 1.94 0.00 90 1010.3
20260906073012 75 353 1.0 3.0 0.00 1.94 0.00 90 1010.2
20260906071506 75 353 0.0 3.0 0.00 1.94 0.00 90 1010.3
20260906070005 75 353 0.0 4.0 0.00 1.94 0.00 90 1010.4
20260906064504 75 353 1.0 4.0 0.00 1.94 0.00 90 1010.4
20260906063004 75 44 0.0 1.0 0.00 1.94 0.00 90 1010.5
20260906061504 75 46 0.0 1.0 0.00 1.94 0.00 90 1010.9
20260906060001 75 47 0.0 1.0 0.00 1.94 0.00 89 1010.8
20260906054504 75 51 0.0 2.0 0.00 1.94 0.00 89 1010.9
20260906053100 75 65 0.0 3.0 0.00 1.94 0.00 89 1010.9
20260906051606 76 65 1.0 5.0 0.00 1.94 0.00 89 1011.4
20260906050106 76 43 1.0 4.0 0.00 1.94 0.00 89 1011.4
20260906044602 76 7 0.0 3.0 0.00 1.94 0.00 88 1011.3
20260906043055 76 336 1.0 5.0 0.00 1.94 0.00 88 1010.9
20260906041553 77 43 0.0 4.0 0.00 1.94 0.00 89 1010.9
20260906040100 76 344 0.0 4.0 0.00 1.94 1.94 88 1010.9
20260906034550 77 3 0.0 5.0 0.00 1.94 1.94 88 1010.9
20260906033050 76 239 1.0 7.0 0.00 1.94 1.94 87 1010.4
20260906031549 76 260 2.0 7.0 0.00 1.94 1.94 87 1010.5
20260906030048 76 223 3.0 10.0 0.00 1.94 1.94 87 1010.6
20260906024551 77 233 3.0 11.0 0.00 1.94 1.94 85 1010.9
20260906023047 77 214 4.0 12.0 0.00 1.94 1.94 86 1011.1
20260906021547 76 241 3.0 9.0 0.00 1.94 1.94 85 1011.4
20260906020046 76 214 3.0 11.0 0.00 1.94 1.94 87 1011.5
20260906014617 76 194 3.0 16.0 0.00 1.94 1.94 87 1011.5
20260906013049 75 229 6.0 11.0 0.00 1.94 1.94 86 1011.1
20260906011545 75 196 3.0 12.0 0.01 1.94 1.94 88 1010.9
20260906010050 75 245 3.0 8.0 0.02 1.94 1.94 90 1010.5
20260906004546 75 170 3.0 8.0 0.05 1.94 1.94 90 1010.5
20260906003044 75 168 1.0 3.0 0.07 1.94 1.94 89 1010.7
20260906001543 75 180 0.0 5.0 0.06 1.93 1.93 89 1009.9
20260906000043 75 136 6.0 13.0 0.47 1.92 1.92 89 1009.9
20260905234542 74 126 8.0 15.0 1.89 1.89 1.89 89 1010.4
20260905233045 73 115 7.0 16.0 1.87 1.87 1.87 88 1010.1
20260905231541 74 109 9.0 16.0 1.86 1.86 1.86 86 1010.9
20260905230034 77 23 12.0 23.0 1.33 1.33 1.33 88 1012.7
20260905224533 80 50 6.0 31.0 0.00 0.00 0.00 81 1011.0
20260905223032 82 130 5.0 24.0 0.00 0.00 0.00 78 1008.3
20260905221533 82 147 10.0 24.0 0.00 0.00 0.00 75 1009.2
20260905220030 85 200 3.0 13.0 0.00 0.00 0.00 81 1008.9
20260905214531 86 210 6.0 13.0 0.00 0.00 0.00 80 1008.7
20260905213029 86 236 5.0 15.0 0.00 0.00 0.00 78 1008.8
20260905211537 88 221 5.0 14.0 0.00 0.00 0.00 76 1008.7
20260905210033 89 222 7.0 16.0 0.00 0.00 0.00 74 1008.7
20260905204530 89 206 5.0 13.0 0.00 0.00 0.00 73 1008.4
20260905203028 89 153 5.0 12.0 0.00 0.00 0.00 74 1008.2
20260905201527 88 203 4.0 13.0 0.00 0.00 0.00 76 1008.3
20260905200028 88 209 4.0 10.0 0.00 0.00 0.00 77 1008.6
20260905194526 89 173 4.0 15.0 0.00 0.00 0.00 76 1008.9
20260905193025 90 192 6.0 14.0 0.00 0.00 0.00 74 1008.9
20260905191524 90 209 4.0 13.0 0.00 0.00 0.00 74 1009.3
20260905190024 91 242 8.0 14.0 0.00 0.00 0.00 71 1009.4
20260905184534 92 187 6.0 12.0 0.00 0.00 0.00 71 1010.0
20260905183021 90 151 6.0 13.0 0.00 0.00 0.00 73 1010.3
20260905181520 91 199 3.0 10.0 0.00 0.00 0.00 70 1010.4
20260905180019 92 200 5.0 11.0 0.00 0.00 0.00 69 1010.6
20260905174518 92 208 9.0 15.0 0.00 0.00 0.00 67 1010.6
20260905173018 95 192 3.0 7.0 0.00 0.00 0.00 64 1010.9
20260905171517 94 257 1.0 7.0 0.00 0.00 0.00 64 1011.0
20260905170014 94 204 0.0 10.0 0.00 0.00 0.00 62 1011.3
20260905164512 93 194 3.0 8.0 0.00 0.00 0.00 65 1011.5
20260905163011 93 346 2.0 11.0 0.00 0.00 0.00 61 1011.8
20260905161512 93 259 4.0 10.0 0.00 0.00 0.00 61 1012.0
20260905160007 92 235 3.0 11.0 0.00 0.00 0.00 64 1012.0
20260905154505 91 347 4.0 10.0 0.00 0.00 0.00 66 1012.0
20260905153005 91 252 4.0 15.0 0.00 0.00 0.00 66 1012.0
20260905151502 90 249 3.0 12.0 0.00 0.00 0.00 70 1012.0
20260905150059 89 246 5.0 12.0 0.00 0.00 0.00 70 1012.0
20260905144557 89 277 4.0 9.0 0.00 0.00 0.00 70 1012.1
20260905143054 88 165 2.0 10.0 0.00 0.00 0.00 72 1012.4
20260905141555 87 284 3.0 12.0 0.00 0.00 0.00 74 1012.3
20260905140049 86 275 4.0 12.0 0.00 0.00 0.00 75 1012.3
20260905134549 85 271 3.0 9.0 0.00 0.00 0.00 78 1012.5
20260905133042 84 265 2.0 6.0 0.00 0.00 0.00 79 1012.4
20260905131541 83 312 2.0 7.0 0.00 0.00 0.00 81 1012.5
20260905130037 82 267 3.0 8.0 0.00 0.00 0.00 82 1012.5
20260905124535 82 263 1.0 6.0 0.00 0.00 0.00 83 1012.5